User: anonymous   Login
Location: Ottawa
(45.4170°N, 75.7000°W)
Time: 00:27:28
(UTC-04:00)
Language:

Aureole 3 Rocket - Orbit

View from above orbital plane
View from above orbital plane
View from above satellite
View from above satellite

Ground track
Ground track

The orbit data is extracted from the following two-line orbital elements,

1 12849U 81094B   15149.09112862  .00000409  00000-0  38092-4 0  9994
2 12849 082.4949 022.0034 0905942 270.6789 079.0774 13.49201201640738
Epoch (UTC): 29 May 2015 02:11:13
Eccentricity: 0.0905942
inclination: 82.4949°
perigee height: 400 km
apogee height: 1750 km
right ascension of ascending node: 22.0034°
argument of perigee: 270.6789°
revolutions per day: 13.49201201
mean anomaly at epoch: 79.0774°
orbit number at epoch: 64073

The dashed part of the orbit path shows where the satellite is in the earth's shadow,  

DLR